Temp_Advection
nan nan nan nan nan nan nan nan nan nan nan nan nan nan nan nan nan nan nan nan nan nan nan nan nan nan nan nan nan nan nan nan nan nan nan nan nan nan nan nan nan nan nan nan nan
nan -0 -0 -0 -0 -0 -0 0 0 0 0 -0 -0 0 -0 0 0 -6 -3 2 1 0 0 -0 -0 -0 -0 -0 -0 -1 -0 0 -0 -0 -0 -0 -0 -1 -0 -0 -0 -1 -0 0 nan
nan -0 -0 -0 -0 -0 0 0 0 0 0 0 0 0 0 -0 -1 -3 1 -0 -0 0 -0 -0 -0 -0 -1 -1 -0 -0 -0 -0 -0 -0 0 -0 -0 -0 -0 -0 -0 -0 -0 -0 nan
nan -0 -0 -0 -0 -0 0 0 0 -0 -0 0 0 -0 0 -1 -1 -0 0 -0 0 0 -0 -0 -0 -0 -0 -0 -0 -0 -0 -0 0 0 0 0 -0 -0 -0 0 0 0 -0 -0 nan
nan -0 -0 -0 -0 -0 0 0 0 0 0 0 0 -0 -0 -4 -1 0 0 0 0 -0 -1 -1 -2 -1 -0 0 -0 -0 -0 -0 -0 0 0 0 0 0 -0 -0 0 -0 -0 -0 nan
nan -0 -0 -0 -0 -0 0 0 -0 -0 -0 0 0 0 -3 -2 0 1 0 0 -0 -1 -1 -1 -0 0 0 -0 -0 0 -0 -0 -0 -0 0 -0 0 -0 -0 -0 0 -0 -0 -0 nan
nan -0 -0 -0 -0 -0 -0 -0 0 0 -0 -0 0 -0 -3 -1 1 1 0 -0 -0 -0 -0 -0 0 -0 -0 -0 -0 0 -0 -1 0 -0 0 0 -0 -0 -0 -0 -0 -0 -0 -0 nan
nan -0 -0 -0 -0 -0 -0 -0 -0 0 -0 -0 -0 -1 -1 0 1 0 -0 -0 -0 -0 -0 -0 -0 -0 -1 -1 -0 -0 -0 -0 -1 -1 -0 -0 0 -1 -0 0 0 0 -0 -0 nan
nan -0 -0 -0 -0 -0 -0 0 0 -0 -0 -0 -0 -0 -0 -0 -0 -1 -0 -0 -0 -0 -0 -0 -0 -1 -2 -0 -1 -1 -0 -0 -1 -1 -1 0 0 -0 -1 -0 0 -0 -0 -0 nan
nan -0 -0 -0 -0 -0 0 0 -0 -0 -0 -0 -1 -0 -1 -0 -1 -0 0 -0 -0 -0 -0 -0 -1 -1 -0 0 0 0 -0 -0 -1 -0 -0 -0 -1 -1 -1 -0 0 0 -0 0 nan
nan -0 -0 -0 -0 -0 -0 -0 -0 -0 -3 -1 -0 -0 -0 -0 -0 -1 -0 -0 -0 -1 -0 -1 -1 0 0 0 0 1 0 -1 -2 -0 -0 0 -0 -1 -1 -0 0 -0 0 0 nan
nan -0 -0 -0 -0 -0 -0 -0 -0 -0 -1 -0 -0 -0 -0 -0 -0 -1 -1 -0 -1 -0 -0 -1 0 -0 0 0 -0 0 0 -0 -1 -1 0 -0 -1 -1 -0 0 -0 0 0 0 nan
nan -0 -0 -0 -0 -0 -0 -0 -0 -0 -0 -0 0 -0 0 -0 -0 0 -1 -0 -0 -0 -0 0 -0 -0 -0 -0 -0 0 0 0 -1 -2 -0 -0 -1 -0 -0 0 0 0 0 -0 nan
nan -0 -0 -0 0 -0 -0 -0 -0 -0 -0 0 0 0 0 0 0 0 -0 -0 -0 -0 0 -0 -0 -0 -0 -0 -0 -0 -0 1 1 -1 -0 -0 -0 -1 -0 0 0 0 -1 -1 nan
nan -0 -0 -0 -0 -0 -0 -0 -0 -0 0 0 0 -0 -0 -0 0 -0 0 -0 -0 -0 0 0 -0 -0 -0 0 0 -0 -0 0 1 0 0 -1 -0 -1 0 -0 0 -0 -0 0 nan
nan -0 -0 -0 -0 -0 -0 -0 -0 0 -0 0 -0 -0 -0 -0 -0 -0 -1 -2 -0 -0 0 0 -0 -0 0 -0 0 -0 -1 -0 -0 -1 0 -0 0 -0 -0 -0 0 0 0 0 nan
nan -0 -0 -0 -0 -0 -0 0 0 0 -0 0 0 -0 -0 -0 -0 -1 -1 -1 -0 -1 -1 -1 -0 -0 0 -0 -0 -1 -1 -1 -1 0 -0 -0 -0 -1 -1 -0 -0 -0 -0 -0 nan
nan -0 -0 -0 -0 0 0 -0 1 -0 -0 -0 -0 0 -0 0 -0 -0 -0 -0 -0 -1 -0 -0 -0 -0 -0 -0 0 0 -0 0 -0 -0 -0 0 0 -1 -0 0 -0 -0 -0 -0 nan
nan -0 -0 -0 0 0 -0 -0 0 0 0 -0 -0 0 -0 0 -0 -1 -0 0 0 0 0 -0 -0 -0 -0 -0 -0 0 0 -0 0 0 -0 -0 -0 -1 -0 -0 -1 -1 -1 -0 nan
nan -0 -0 -0 0 0 -1 0 0 -0 -0 -0 0 -0 -0 -0 -0 -0 0 0 -0 -0 -0 0 -1 -0 -0 -0 -0 -0 0 -0 0 -0 -1 0 -0 -0 -0 -1 -1 -1 -1 -0 nan
nan -0 -0 -0 -0 -1 -1 0 0 0 -0 -0 0 0 0 -0 -0 0 0 -0 -0 -0 -0 -0 1 -1 -0 0 1 -0 -0 -0 -0 -0 0 -1 -0 0 0 0 -1 -2 -0 0 nan
nan -0 -0 -0 -0 -1 -0 0 -0 -0 -0 0 -0 -0 -0 0 -0 -0 0 -0 -0 -0 0 0 -0 -1 0 0 -0 0 0 0 0 0 0 0 -1 0 0 -1 -1 -0 -0 -0 nan
nan -0 -0 -0 -1 -0 0 0 0 -0 0 -0 -0 -0 -0 0 0 -0 0 0 -0 -0 -0 -0 -0 -0 0 0 0 -0 0 0 0 0 0 -0 -1 -0 -1 0 -0 0 -0 -0 nan
nan -0 -0 -1 -1 -1 -0 0 -0 -0 0 0 0 0 0 0 -0 -0 -0 0 0 -0 -0 -1 -0 -0 -0 1 -1 0 -1 -0 0 -0 -0 -2 -3 1 0 -0 -0 -0 -0 0 nan
nan 0 -0 -0 -0 -0 -0 0 0 0 0 0 0 0 0 -0 -0 0 0 -0 -0 0 0 -0 0 -0 -0 0 0 0 2 -0 -0 -0 -0 0 -0 -3 0 0 -1 -0 0 -0 nan
nan 0 -0 -0 0 -0 0 -0 0 0 -0 -0 -0 0 -0 -0 -0 -0 0 0 0 0 0 0 0 -0 -0 -0 0 -0 0 0 0 1 -0 -1 -0 -1 -1 0 1 -0 -0 -0 nan
nan nan nan nan nan nan nan nan nan nan nan nan nan nan nan nan nan nan nan nan nan nan nan nan nan nan nan nan nan nan nan nan nan nan nan nan nan nan nan nan nan nan nan nan nan
Wind_Speed
16 15 14 13 12 12 13 13 12 13 17 17 19 14 7 7 19 28 37 26 23 21 17 15 11 12 10 11 9 3 4 3 6 5 4 12 7 6 10 5 9 7 12 10 13
16 15 13 12 11 11 11 11 12 15 17 19 19 16 9 4 12 38 28 22 21 20 17 19 17 17 9 7 6 7 3 2 4 3 4 11 11 13 6 11 7 13 11 13 17
16 15 14 11 10 10 11 11 12 13 14 19 16 17 11 2 7 31 26 22 21 19 14 12 9 9 10 9 11 7 3 4 4 5 8 8 11 15 11 3 8 6 12 16 19
15 15 15 12 9 8 9 8 6 8 11 13 17 11 20 15 5 30 22 21 19 18 10 21 14 5 6 5 8 3 5 4 6 7 4 6 11 9 14 14 3 5 9 13 14
14 13 14 13 9 8 7 7 8 9 11 11 16 15 13 23 18 25 17 18 16 16 23 13 27 9 5 3 8 3 5 11 11 12 8 9 10 7 20 23 8 6 5 6 8
14 13 14 13 8 7 8 12 14 17 9 9 10 19 22 17 25 23 16 15 16 17 21 24 14 8 4 4 2 6 11 16 11 10 5 2 10 5 9 6 4 3 4 6 7
14 12 14 13 9 6 8 11 13 15 18 6 7 7 27 18 22 23 16 17 15 17 19 18 16 20 9 4 7 6 5 8 4 9 6 4 6 3 6 4 2 2 3 4 5
14 12 13 12 9 6 6 4 7 7 13 11 6 10 9 16 23 31 13 14 14 14 15 15 13 10 12 13 4 4 3 6 8 16 7 0 13 9 9 14 3 4 3 2 2
15 12 13 12 8 8 10 15 13 7 8 14 12 6 6 13 19 33 16 14 16 11 14 11 7 9 17 4 5 7 5 6 9 20 8 3 11 6 11 19 6 8 7 2 4
17 14 11 12 8 7 5 6 13 13 4 7 13 4 13 15 15 32 11 13 11 12 6 9 8 4 5 8 3 8 6 5 16 6 7 8 15 14 27 21 13 13 8 8 6
17 17 11 11 8 4 3 2 3 4 25 14 12 6 8 11 11 29 18 9 7 9 5 5 10 5 8 5 3 6 5 10 17 8 16 13 21 19 21 8 14 13 11 8 2
17 19 13 8 13 6 5 4 6 7 12 13 9 15 12 10 9 34 26 7 10 5 8 6 4 4 7 5 7 7 10 8 12 12 14 10 21 15 10 13 16 14 8 3 7
16 18 16 8 11 10 7 7 9 7 4 7 12 10 13 9 10 26 28 7 8 7 7 5 2 8 5 3 12 9 4 5 12 19 6 10 8 5 5 12 13 10 5 4 9
15 17 17 11 7 10 6 8 6 2 4 8 8 8 15 3 5 23 25 8 8 4 4 4 4 4 4 3 5 5 2 16 18 5 2 5 5 5 3 5 6 7 10 13 17
15 14 18 14 9 7 3 5 3 0 5 6 5 7 9 8 8 16 15 7 3 4 3 2 5 6 4 5 4 9 20 15 12 3 4 7 3 7 4 3 3 11 11 18 25
15 12 17 14 12 8 3 3 2 5 3 4 5 7 4 7 5 7 11 13 2 3 1 1 2 2 2 11 4 11 7 4 3 3 3 5 4 5 3 4 3 3 14 22 32
15 11 16 16 12 7 2 1 4 6 3 7 4 5 2 5 5 8 5 9 5 7 7 5 2 1 5 5 3 9 6 5 8 6 4 4 5 9 8 2 6 2 16 31 40
14 10 14 16 13 8 4 3 9 0 1 3 4 4 4 7 3 5 3 5 5 5 2 4 5 2 4 5 4 4 5 5 5 4 6 8 6 5 4 10 9 11 23 30 39
15 9 13 17 13 10 3 6 3 2 1 5 5 3 2 1 1 6 4 2 2 2 3 5 5 2 2 1 5 4 4 5 2 2 2 4 7 7 3 4 7 17 35 40 44
14 5 13 16 11 9 5 4 2 1 2 1 2 2 3 6 5 5 2 4 2 3 3 1 6 2 3 4 3 4 2 4 3 4 6 5 6 6 7 9 9 20 31 41 47
11 5 11 14 8 5 4 3 3 1 0 2 1 1 2 2 1 3 3 3 3 4 4 4 3 4 2 3 6 1 2 3 4 4 4 4 8 7 7 7 11 26 39 45 47
7 3 10 11 3 6 2 2 4 3 1 0 2 3 3 1 1 3 3 5 6 4 3 3 4 6 9 1 4 5 6 5 4 6 3 3 8 6 9 10 30 37 43 47 48
8 3 6 8 3 2 1 2 1 3 3 3 2 2 2 3 2 3 3 4 8 4 5 4 1 6 6 3 4 3 4 4 3 2 7 4 8 5 14 21 32 38 45 49 52
5 3 3 5 5 6 4 3 2 3 3 3 3 3 3 4 6 3 3 6 10 5 5 6 3 7 7 9 3 3 4 5 6 3 4 10 24 27 23 25 34 40 47 50 53
3 1 1 3 3 3 2 4 4 4 3 5 2 6 6 1 2 5 5 3 4 5 5 5 5 5 14 20 17 19 18 9 12 11 6 8 7 24 25 24 36 48 52 52 52
4 1 0 2 2 3 1 5 7 2 7 4 4 6 7 6 8 5 2 4 4 5 5 2 4 4 7 6 6 9 13 10 13 12 14 25 25 18 34 36 37 42 47 49 53
4 4 3 3 3 3 4 5 6 6 8 3 9 2 6 13 14 9 6 5 4 7 6 5 1 5 6 8 12 5 8 8 3 4 6 5 10 7 20 28 39 44 46 47 56
Wind_Direction
49 46 51 55 62 69 69 74 78 62 46 35 32 52 88 40 35 29 33 6 359 11 21 36 48 40 54 48 44 21 60 350 350 7 303 9 12 353 333 321 339 352 50 23 15
43 40 40 48 61 65 69 80 79 71 49 42 44 47 69 54 30 33 13 15 11 16 23 34 41 43 59 28 29 51 82 37 353 36 344 340 345 330 336 328 312 335 321 340 342
41 38 35 44 59 61 67 87 94 67 47 41 39 44 31 85 37 6 13 14 12 20 30 32 55 51 55 43 13 1 91 347 25 359 352 329 320 335 337 295 335 35 358 346 343
40 38 33 37 48 58 65 86 82 20 26 46 38 41 47 44 59 358 8 14 12 23 27 44 59 59 65 46 4 48 32 20 298 307 318 302 296 300 282 281 264 337 346 339 344
37 37 34 33 43 50 52 65 52 39 58 57 48 42 50 54 26 3 8 14 16 29 40 41 45 45 53 11 357 40 335 310 286 294 284 285 285 281 289 283 263 318 341 330 328
39 35 33 30 42 54 66 78 65 56 68 63 60 49 58 69 23 3 7 18 27 36 41 51 43 50 45 2 55 303 292 292 293 276 269 326 287 299 277 235 243 65 41 352 342
41 41 30 27 45 63 89 82 68 47 45 65 45 46 48 57 25 14 14 21 33 41 49 59 57 57 338 335 325 288 321 343 80 347 267 309 342 205 325 38 124 29 17 37 16
40 42 35 36 47 75 80 46 336 21 44 55 54 53 76 30 20 15 27 39 47 54 55 60 43 57 7 308 305 330 61 1 317 318 312 88 281 261 309 312 261 150 109 88 348
34 40 41 40 47 80 98 59 53 84 84 56 55 70 45 4 4 14 10 32 39 47 50 45 45 60 10 32 22 13 295 302 316 331 334 281 285 283 300 311 190 160 159 198 243
27 28 41 40 52 70 147 34 62 50 92 52 33 48 16 351 7 11 22 37 20 21 43 36 44 57 23 30 4 306 325 290 301 293 342 302 289 297 296 273 217 182 189 221 218
26 24 26 37 45 57 24 316 63 48 59 64 59 74 358 5 14 8 21 66 37 47 14 29 56 22 318 339 288 292 252 282 285 298 343 302 292 289 281 288 180 184 199 210 212
28 23 19 22 30 23 18 69 79 121 88 57 51 31 27 16 6 11 15 53 41 38 358 33 70 281 293 349 5 315 303 285 281 338 317 302 293 295 255 207 185 183 193 178 337
22 21 19 13 23 31 53 89 115 109 72 39 34 16 19 16 33 4 14 31 33 29 14 96 304 345 334 14 358 313 229 303 299 324 306 348 315 354 24 131 162 149 165 27 20
17 21 20 18 12 16 61 111 129 116 81 337 1 15 7 4 49 6 10 21 31 32 351 95 0 354 346 5 27 293 205 313 306 16 303 64 286 318 282 134 159 174 85 20 354
13 15 17 21 16 20 59 137 157 8 58 345 348 0 16 57 330 8 359 34 60 325 31 301 356 13 360 307 341 255 309 293 295 179 58 337 48 279 66 246 243 117 30 359 346
8 7 10 12 14 24 91 152 154 46 311 344 351 359 15 31 13 343 7 24 19 356 234 242 97 87 258 299 265 319 312 8 35 95 30 255 104 284 253 208 141 149 357 344 337
7 13 12 11 9 15 75 154 36 84 12 329 330 354 32 336 352 16 51 22 44 16 14 330 171 113 318 324 330 5 13 352 357 7 245 237 13 246 278 308 117 10 342 336 329
5 10 11 10 8 2 344 50 67 353 12 3 326 327 35 1 359 26 57 25 28 42 349 25 329 28 346 134 214 342 96 130 256 299 299 313 232 263 318 110 4 348 331 323 325
358 3 12 9 4 358 354 49 191 198 314 333 320 29 341 347 39 49 65 157 218 34 70 10 268 62 63 125 130 333 42 173 145 237 337 261 296 305 317 327 342 311 335 327 321
352 10 12 4 0 356 64 142 201 44 337 274 62 50 316 322 19 52 333 234 212 194 173 222 310 222 167 87 33 122 205 34 14 351 304 286 282 240 301 304 313 331 315 316 316
350 3 358 358 357 12 97 153 129 158 351 31 200 267 217 290 335 292 244 215 183 186 155 139 105 284 155 180 173 4 5 39 124 144 204 299 271 227 245 246 302 311 319 315 313
353 356 353 356 7 48 86 124 139 170 132 232 100 131 179 344 316 284 280 195 168 163 163 211 155 271 234 289 170 162 181 132 126 280 231 170 269 257 256 259 312 315 311 310 310
343 326 351 3 86 53 156 71 144 157 206 192 189 209 182 226 353 216 267 184 173 157 169 190 265 314 334 14 2 157 226 141 124 102 215 157 259 257 298 307 307 307 309 310 314
340 5 8 47 69 128 144 188 181 195 182 196 169 163 179 233 214 258 258 193 192 175 166 161 199 193 213 240 131 283 169 193 148 192 216 226 283 300 306 310 309 309 311 314 311
340 23 6 304 11 100 151 157 159 222 218 200 238 219 170 259 266 228 216 132 175 185 165 157 243 226 257 261 270 263 266 188 197 221 205 267 266 294 298 303 305 310 313 313 313
300 232 134 174 142 118 213 221 204 203 152 237 220 200 179 198 201 231 135 203 209 184 179 180 275 331 282 276 228 253 245 217 225 250 255 264 276 275 284 304 304 310 314 313 315
263 265 258 183 165 108 225 205 212 172 207 234 207 174 227 242 250 260 231 226 209 167 196 168 274 353 271 313 307 307 230 197 211 217 187 263 265 303 305 307 311 314 311 310 316
Height
1554 1553 1551 1550 1549 1548 1548 1547 1546 1546 1545 1544 1541 1539 1538 1537 1537 1531 1521 1539 1535 1531 1528 1525 1524 1522 1521 1523 1524 1524 1532 1536 1538 1535 1534 1534 1534 1532 1531 1530 1530 1531 1531 1533 1531
1556 1554 1553 1552 1551 1550 1549 1548 1548 1548 1547 1545 1543 1541 1540 1539 1538 1533 1543 1540 1536 1531 1528 1524 1523 1522 1523 1525 1525 1527 1536 1539 1537 1537 1538 1535 1535 1533 1531 1530 1528 1528 1528 1527 1526
1558 1556 1555 1554 1553 1552 1551 1550 1550 1550 1549 1547 1545 1544 1541 1539 1539 1542 1543 1541 1537 1533 1531 1528 1525 1525 1526 1531 1536 1535 1540 1539 1538 1537 1537 1535 1534 1533 1531 1529 1529 1529 1526 1523 1521
1560 1558 1556 1555 1554 1553 1553 1553 1552 1551 1550 1550 1548 1545 1543 1539 1554 1549 1546 1543 1539 1537 1533 1530 1526 1527 1535 1539 1538 1538 1537 1538 1536 1536 1535 1535 1532 1531 1530 1530 1528 1527 1525 1525 1524
1561 1560 1558 1556 1555 1555 1554 1554 1554 1553 1552 1551 1550 1547 1545 1542 1554 1552 1548 1544 1542 1538 1532 1530 1530 1535 1540 1539 1538 1539 1539 1537 1535 1534 1533 1532 1530 1529 1525 1525 1526 1525 1523 1525 1524
1562 1561 1559 1557 1557 1556 1556 1556 1555 1554 1553 1552 1552 1551 1547 1548 1555 1554 1549 1547 1542 1539 1537 1535 1538 1539 1541 1541 1541 1540 1537 1535 1531 1531 1531 1530 1527 1527 1524 1525 1525 1524 1524 1523 1523
1564 1562 1560 1558 1557 1557 1557 1558 1557 1555 1554 1553 1552 1551 1549 1560 1557 1555 1551 1547 1544 1543 1541 1541 1543 1544 1543 1541 1541 1539 1541 1535 1531 1533 1530 1527 1528 1525 1524 1523 1523 1522 1522 1522 1523
1565 1563 1561 1559 1558 1558 1559 1559 1557 1556 1556 1554 1553 1552 1555 1559 1558 1554 1552 1549 1547 1545 1546 1545 1545 1543 1545 1542 1540 1540 1541 1549 1534 1531 1529 1528 1524 1520 1520 1520 1520 1519 1519 1521 1522
1567 1565 1563 1561 1559 1559 1560 1559 1556 1556 1556 1556 1555 1554 1560 1561 1560 1555 1552 1550 1548 1548 1548 1547 1546 1549 1548 1548 1552 1554 1567 1555 1542 1533 1532 1531 1523 1518 1518 1517 1517 1517 1518 1519 1520
1568 1567 1565 1562 1560 1560 1560 1559 1559 1558 1557 1556 1558 1560 1564 1565 1562 1558 1553 1552 1549 1549 1549 1548 1550 1557 1558 1557 1578 1566 1568 1556 1551 1535 1534 1530 1522 1515 1514 1513 1512 1514 1515 1516 1517
1570 1568 1566 1564 1562 1561 1560 1560 1562 1562 1559 1566 1570 1568 1569 1566 1563 1561 1554 1554 1552 1552 1555 1554 1563 1572 1567 1564 1563 1566 1569 1563 1546 1538 1535 1527 1520 1508 1506 1504 1508 1511 1513 1515 1515
1571 1569 1566 1565 1563 1561 1560 1560 1561 1565 1568 1570 1570 1569 1568 1566 1564 1561 1556 1556 1557 1561 1557 1562 1572 1566 1563 1562 1566 1563 1560 1559 1543 1536 1537 1526 1513 1499 1495 1502 1505 1507 1512 1514 1513
1573 1570 1567 1565 1564 1562 1561 1562 1563 1564 1566 1572 1571 1570 1571 1569 1569 1565 1561 1560 1562 1564 1567 1567 1568 1565 1563 1564 1564 1558 1561 1560 1554 1536 1531 1527 1518 1502 1500 1500 1506 1508 1512 1513 1514
1574 1571 1569 1566 1566 1563 1563 1563 1564 1565 1572 1578 1574 1575 1573 1569 1571 1570 1566 1567 1565 1571 1569 1569 1568 1568 1565 1565 1568 1565 1549 1549 1544 1554 1564 1536 1556 1519 1506 1505 1506 1509 1511 1512 1510
1575 1573 1570 1566 1566 1564 1565 1564 1564 1566 1587 1579 1577 1576 1574 1574 1576 1574 1570 1567 1571 1572 1571 1568 1570 1569 1568 1565 1565 1558 1548 1544 1542 1556 1561 1546 1568 1526 1509 1510 1509 1511 1510 1508 1506
1576 1574 1571 1569 1566 1565 1564 1564 1566 1574 1591 1581 1579 1578 1577 1576 1576 1574 1573 1570 1571 1571 1569 1569 1570 1571 1570 1563 1562 1558 1546 1539 1540 1553 1582 1564 1561 1539 1520 1509 1510 1509 1507 1505 1501
1577 1575 1573 1570 1568 1565 1564 1565 1573 1585 1581 1583 1586 1581 1582 1583 1578 1577 1583 1586 1593 1588 1587 1574 1571 1571 1570 1567 1561 1564 1569 1580 1561 1574 1572 1552 1557 1534 1512 1508 1508 1507 1504 1500 1496
1578 1576 1574 1571 1568 1566 1565 1567 1583 1583 1588 1589 1585 1583 1583 1585 1583 1583 1585 1596 1594 1598 1603 1598 1569 1572 1572 1577 1582 1576 1587 1609 1610 1583 1563 1550 1568 1531 1510 1507 1506 1504 1502 1498 1491
1578 1576 1575 1572 1569 1567 1567 1586 1590 1593 1594 1593 1586 1582 1584 1586 1588 1587 1596 1603 1601 1599 1603 1607 1577 1573 1572 1572 1577 1579 1592 1585 1609 1604 1599 1557 1540 1522 1509 1506 1503 1500 1491 1489 1485
1579 1576 1575 1573 1571 1569 1570 1589 1593 1594 1594 1594 1591 1592 1593 1592 1590 1594 1592 1599 1600 1598 1597 1604 1608 1570 1572 1574 1577 1583 1583 1600 1613 1623 1596 1553 1563 1531 1514 1505 1498 1493 1490 1482 1475
1579 1577 1577 1574 1572 1571 1588 1594 1594 1594 1594 1595 1593 1597 1601 1600 1596 1597 1600 1596 1594 1595 1595 1601 1610 1575 1571 1577 1585 1588 1598 1597 1600 1606 1620 1602 1541 1517 1512 1505 1498 1489 1483 1474 1464
1580 1579 1578 1576 1576 1581 1593 1591 1592 1593 1594 1595 1595 1598 1600 1596 1599 1594 1592 1591 1592 1593 1599 1598 1610 1602 1574 1574 1575 1581 1589 1598 1604 1602 1607 1610 1547 1503 1501 1498 1489 1482 1475 1466 1459
1581 1580 1579 1577 1585 1591 1592 1593 1593 1594 1593 1593 1594 1594 1596 1596 1601 1595 1589 1589 1589 1590 1596 1596 1607 1598 1567 1578 1574 1582 1586 1590 1591 1593 1595 1612 1541 1498 1494 1490 1487 1476 1467 1457 1447
1583 1583 1580 1579 1582 1584 1592 1591 1593 1592 1592 1591 1592 1593 1594 1593 1592 1593 1587 1588 1588 1589 1589 1591 1599 1592 1581 1561 1573 1578 1578 1582 1581 1585 1584 1558 1507 1494 1490 1485 1474 1467 1459 1449 1437
1584 1584 1584 1587 1584 1585 1587 1589 1590 1590 1591 1591 1591 1590 1593 1598 1588 1590 1586 1587 1588 1588 1590 1591 1597 1584 1569 1560 1560 1556 1554 1570 1570 1557 1566 1524 1538 1506 1496 1487 1475 1464 1451 1437 1423
1585 1584 1584 1584 1585 1585 1587 1588 1586 1586 1588 1590 1589 1583 1586 1591 1581 1586 1581 1582 1583 1588 1589 1591 1591 1582 1573 1549 1556 1557 1545 1549 1551 1549 1546 1528 1521 1506 1493 1486 1476 1465 1452 1434 1420
1583 1583 1583 1583 1583 1587 1583 1580 1581 1582 1583 1583 1583 1584 1584 1579 1579 1578 1578 1579 1579 1581 1585 1589 1590 1587 1570 1550 1544 1550 1537 1538 1541 1543 1530 1533 1508 1499 1492 1484 1472 1459 1448 1434 1418